Stations météo

Publicité
Paris-Montsouris, France (7156): Température de l'air & dewpoint: 14.04.2019 14:00:00 - 20.04.2019 14:00:00 (CEST)Paris-Montsouris, France (7156): Température de l'air 5cm: 14.04.2019 14:00:00 - 20.04.2019 14:00:00 (CEST)Paris-Montsouris, France (7156): Température de l'air -20cm & Température de l'air -100cm: 14.04.2019 14:00:00 - 20.04.2019 14:00:00 (CEST)Paris-Montsouris, France (7156): Vitesse du vent & gusts: 14.04.2019 14:00:00 - 20.04.2019 14:00:00 (CEST)Paris-Montsouris, France (7156): Direction du vent: 14.04.2019 14:00:00 - 20.04.2019 14:00:00 (CEST)Paris-Montsouris, France (7156): reduced air pressure: 14.04.2019 14:00:00 - 20.04.2019 14:00:00 (CEST)Paris-Montsouris, France (7156): visibility: 14.04.2019 14:00:00 - 20.04.2019 14:00:00 (CEST)Paris-Montsouris, France (7156): Ensoleillement: 14.04.2019 14:00:00 - 20.04.2019 14:00:00 (CEST)Paris-Montsouris, France (7156): Quantités de précipitations: 14.04.2019 14:00:00 - 20.04.2019 14:00:00 (CEST)
Date & Time tt [°C] td [°C] tt 5cm [°C] tt -20cm [°C] tt -100cm [°C] ff [km/h] ff [knt] fx [km/h] fx [knt] dd ppp [hPa] vv [km] sd [min] rr [mm]
20.04.2019 14:00:00 26,1 8,1 - - - 13 7 31 17 ENE 1025,1 20 - -
20.04.2019 13:00:00 24,9 8,8 30,0 13,1 10,4 11 6 29 15 ENE 1025,9 20 60 0,0
20.04.2019 12:00:00 22,5 10,0 27,7 12,8 10,4 10 5 29 16 NE 1026,4 20 60 0,0
20.04.2019 11:00:00 20,7 9,0 25,2 12,8 10,4 10 5 23 12 NNE 1026,7 20 60 0,0
20.04.2019 10:00:00 18,7 8,4 19,8 12,8 10,3 11 6 23 13 NNE 1026,9 20 60 0,0
20.04.2019 09:00:00 16,8 8,7 12,2 12,9 10,3 12 6 22 12 NNE 1026,9 20 54 0,0
20.04.2019 08:00:00 14,7 8,6 9,6 13,1 10,3 5 3 16 8 NNE 1026,8 20 45 0,0
20.04.2019 07:00:00 14,3 8,3 9,4 13,2 10,3 5 3 13 7 N 1026,3 20 0 0,0
20.04.2019 06:00:00 14,9 8,1 9,7 13,3 10,3 8 5 16 9 NNE 1025,9 20 0 0,0
20.04.2019 05:00:00 15,6 8,3 10,1 13,4 10,3 4 2 14 7 NW 1026,0 20 0 0,0
20.04.2019 04:00:00 17,8 7,2 13,8 13,5 10,3 8 4 25 13 SE 1025,7 20 0 0,0
20.04.2019 03:00:00 17,7 8,0 14,2 13,6 10,3 5 3 15 8 N 1025,8 20 0 0,0
20.04.2019 02:00:00 18,2 7,6 13,4 13,8 10,3 9 5 29 15 E 1026,4 20 0 0,2
20.04.2019 01:00:00 17,5 9,1 12,9 13,9 10,3 11 6 22 12 NE 1026,1 20 0 0,0
20.04.2019 00:00:00 18,2 7,3 12,4 14,1 10,3 9 5 14 8 N 1025,6 20 0 0,0
19.04.2019 23:00:00 19,0 7,1 12,5 14,3 10,3 7 4 15 8 NE 1025,5 20 0 0,0
19.04.2019 22:00:00 19,0 6,5 12,7 14,4 10,3 6 4 13 7 NE 1025,4 20 0 0,0
19.04.2019 21:00:00 20,9 6,8 14,8 14,4 10,3 7 4 18 10 ENE 1024,7 20 0 0,0
19.04.2019 20:00:00 22,4 6,2 18,5 14,4 10,3 10 5 26 14 ENE 1024,2 20 38 0,0
19.04.2019 19:00:00 24,7 7,8 26,1 14,2 10,3 10 6 25 13 ENE 1024,0 20 60 0,0
19.04.2019 18:00:00 25,2 7,8 29,4 14,0 10,3 12 6 25 13 E 1023,8 20 60 0,0
19.04.2019 17:00:00 25,3 6,5 31,2 13,6 10,3 8 5 26 14 ENE 1023,6 20 60 0,0
19.04.2019 16:00:00 25,6 8,6 31,2 13,2 10,3 8 5 23 13 NE 1023,6 20 57 0,0
19.04.2019 15:00:00 24,9 5,6 31,3 12,8 10,2 6 4 23 12 E 1023,9 20 60 0,0
19.04.2019 14:00:00 23,7 7,7 29,9 12,4 10,2 8 4 25 13 ENE 1024,0 20 60 0,0
19.04.2019 13:00:00 22,9 8,2 28,6 12,0 10,2 7 4 21 11 E 1024,2 20 60 0,0
19.04.2019 12:00:00 20,7 9,0 25,3 11,8 10,2 9 5 18 10 ENE 1024,3 19 60 0,0
19.04.2019 11:00:00 19,7 8,7 23,0 11,7 10,2 8 4 16 8 ENE 1024,3 20 60 0,0
19.04.2019 10:00:00 17,7 6,8 18,1 11,8 10,1 6 3 14 8 ENE 1024,3 20 60 0,0
19.04.2019 09:00:00 14,8 6,9 10,1 11,9 10,2 6 3 14 8 NNE 1023,9 20 60 0,0
19.04.2019 08:00:00 12,4 6,0 6,8 12,0 10,1 8 5 14 8 NNE 1023,7 20 43 0,0
19.04.2019 07:00:00 12,2 5,8 7,0 12,2 10,2 7 4 14 8 NNE 1023,0 20 0 0,0
19.04.2019 06:00:00 12,6 6,0 7,1 12,3 10,2 6 3 10 6 N 1022,4 20 0 0,0
19.04.2019 05:00:00 13,2 6,1 7,8 12,5 10,1 6 3 13 7 N 1022,2 20 0 0,0
19.04.2019 04:00:00 14,4 6,0 9,4 12,6 10,2 8 4 17 9 NE 1021,8 20 0 0,0
19.04.2019 03:00:00 14,9 5,7 9,5 12,8 10,1 9 5 26 14 ENE 1021,7 20 0 0,0
19.04.2019 02:00:00 16,5 5,7 11,9 12,9 10,1 10 5 29 16 E 1021,5 20 0 0,0
19.04.2019 01:00:00 16,9 5,5 11,2 13,1 10,1 11 6 25 14 E 1021,4 20 0 0,0
19.04.2019 00:00:00 17,0 5,3 11,3 13,2 10,1 9 5 22 12 ENE 1021,2 20 0 0,0
18.04.2019 23:00:00 17,7 5,6 12,0 13,3 10,1 9 5 22 12 ENE 1020,9 20 0 0,0
18.04.2019 22:00:00 18,9 6,0 13,1 13,5 10,1 10 6 20 11 E 1020,5 20 0 0,0
18.04.2019 21:00:00 19,9 6,2 14,6 13,5 10,1 9 5 28 15 E 1020,0 20 22 0,0
18.04.2019 20:00:00 21,2 7,4 18,2 13,4 10,1 11 6 33 18 E 1019,4 20 57 0,0
18.04.2019 19:00:00 22,3 9,1 21,8 13,3 10,1 13 7 33 18 E 1018,9 20 9 0,0
18.04.2019 18:00:00 22,7 8,4 23,9 13,1 10,1 10 6 37 20 ESE 1018,6 20 42 0,0
18.04.2019 17:00:00 23,5 8,7 26,1 12,8 10,1 13 7 36 19 E 1018,5 20 52 0,0
18.04.2019 16:00:00 23,1 9,1 25,9 12,5 10,1 13 7 46 25 ESE 1018,5 20 50 0,0
18.04.2019 15:00:00 22,5 7,5 27,0 12,2 10,1 15 8 45 25 SE 1018,5 20 60 0,0
18.04.2019 14:00:00 22,7 4,7 27,2 11,8 10,1 19 11 42 23 SE 1018,6 20 60 0,0
18.04.2019 13:00:00 22,0 9,5 25,6 11,5 10,1 13 7 30 16 E 1018,6 20 60 0,0
18.04.2019 12:00:00 20,3 11,0 24,2 11,2 10,1 13 7 30 16 E 1019,1 20 60 0,0
18.04.2019 11:00:00 - - - - - - - - - - - - - -
18.04.2019 10:00:00 16,3 9,5 16,0 11,1 10,1 6 4 20 11 ENE 1019,5 20 60 0,0
18.04.2019 09:00:00 14,0 9,0 11,0 11,2 10,1 9 5 21 12 E 1019,4 20 60 0,0
18.04.2019 08:00:00 12,2 8,3 8,4 11,3 10,1 9 5 22 12 E 1019,4 20 31 0,0
18.04.2019 07:00:00 11,8 7,9 8,2 11,4 10,1 9 5 21 12 E 1019,0 20 0 0,0
18.04.2019 06:00:00 12,0 7,9 8,8 11,5 10,1 7 4 18 10 ENE 1018,4 20 0 0,0
18.04.2019 05:00:00 12,1 8,0 9,2 11,6 10,1 5 3 20 11 E 1018,8 20 0 0,0
18.04.2019 04:00:00 12,6 7,9 9,9 11,7 10,1 10 5 25 14 E 1018,7 20 0 0,0
18.04.2019 03:00:00 13,0 8,1 10,6 11,8 10,0 10 5 21 11 E 1018,8 20 0 0,0
18.04.2019 02:00:00 13,3 7,9 11,0 11,9 10,1 9 5 24 13 E 1019,2 20 0 0,0
18.04.2019 01:00:00 13,9 7,4 11,3 12,0 10,1 13 7 32 18 E 1019,1 20 0 0,0
18.04.2019 00:00:00 14,6 6,9 10,9 12,2 10,0 11 6 34 19 E 1018,6 20 0 0,0
17.04.2019 23:00:00 15,0 6,5 10,5 12,3 10,1 13 7 32 17 E 1018,7 20 0 0,0
17.04.2019 22:00:00 14,9 5,9 9,5 12,4 10,1 8 5 24 13 E 1018,8 20 0 0,0
17.04.2019 21:00:00 15,9 6,0 11,9 12,4 10,1 11 6 26 14 E 1018,5 20 14 0,0
17.04.2019 20:00:00 17,2 6,1 15,2 12,4 10,1 9 5 26 14 ESE 1018,1 20 57 0,0
17.04.2019 19:00:00 18,3 6,2 19,5 12,2 10,0 14 8 35 19 E 1017,9 20 60 0,0
17.04.2019 18:00:00 19,0 5,4 23,5 12,0 10,1 16 9 32 18 E 1018,0 20 60 0,0
17.04.2019 17:00:00 19,5 5,2 20,4 11,6 10,0 11 6 30 16 SE 1018,2 20 52 0,0
17.04.2019 16:00:00 18,7 5,9 21,3 11,2 10,0 13 7 28 15 E 1018,6 20 58 0,0
17.04.2019 15:00:00 18,0 5,9 21,6 10,8 10,0 8 4 28 15 SE 1019,4 20 53 0,0
17.04.2019 14:00:00 17,0 7,1 19,6 10,4 10,0 6 4 22 12 SSW 1019,9 20 54 0,0
17.04.2019 13:00:00 15,6 7,6 18,9 10,1 10,0 8 4 24 13 E 1020,4 20 44 0,0
17.04.2019 12:00:00 14,7 7,7 20,4 9,9 10,0 8 4 22 12 SSE 1020,7 19 60 0,0
17.04.2019 11:00:00 14,6 8,1 17,6 9,8 10,1 9 5 20 11 ESE 1020,7 20 60 0,0
17.04.2019 10:00:00 12,2 7,9 9,8 9,8 10,0 6 4 14 8 SE 1020,5 17 60 0,0
17.04.2019 09:00:00 9,0 7,9 4,4 9,9 10,1 3 2 10 5 SSE 1020,6 14 60 0,0
17.04.2019 08:00:00 7,0 6,3 2,7 10,0 10,0 4 2 11 6 S 1020,5 10 22 0,0
17.04.2019 07:00:00 7,6 6,8 2,1 10,2 10,1 9 5 11 6 SSW 1020,1 9 0 0,0
17.04.2019 06:00:00 7,1 6,4 1,7 10,3 10,0 4 2 7 4 SSE 1019,8 7 0 0,0
17.04.2019 05:00:00 7,6 6,8 2,5 10,4 10,0 5 3 9 5 SW 1019,7 7 0 0,0
17.04.2019 04:00:00 8,1 7,0 3,5 10,5 10,1 6 3 9 5 SW 1019,8 9 0 0,0
17.04.2019 03:00:00 8,7 7,5 4,2 10,6 10,0 3 2 10 5 W 1019,6 11 0 0,0
17.04.2019 02:00:00 9,6 7,9 5,2 10,7 10,0 5 3 14 7 SW 1019,7 13 0 0,0
17.04.2019 01:00:00 10,7 8,1 7,5 10,8 10,0 7 4 14 8 W 1019,7 20 0 0,0
17.04.2019 00:00:00 11,4 8,4 8,5 10,8 10,0 6 4 15 8 W 1019,3 20 0 0,0
16.04.2019 23:00:00 11,6 8,1 10,1 10,8 10,0 5 3 18 10 W 1019,2 20 0 0,0
16.04.2019 22:00:00 11,9 8,2 11,1 10,9 10,0 9 5 23 12 W 1019,0 20 0 0,0
16.04.2019 21:00:00 12,4 7,9 11,7 10,8 10,0 10 6 29 16 WNW 1018,3 20 0 0,0
16.04.2019 20:00:00 13,0 7,9 12,3 10,9 10,1 13 7 26 14 WNW 1017,7 20 0 0,0
16.04.2019 19:00:00 13,2 7,4 12,7 10,8 10,1 8 5 18 10 W 1017,2 20 0 0,0
16.04.2019 18:00:00 13,3 7,5 13,3 10,8 10,0 7 4 19 11 WSW 1016,8 19 0 0,0
16.04.2019 17:00:00 13,1 7,3 12,6 10,7 10,1 6 3 20 11 WSW 1016,4 18 0 0,0
16.04.2019 16:00:00 12,7 7,4 12,8 10,6 10,0 10 5 22 12 SW 1016,2 17 0 0,0
16.04.2019 15:00:00 13,4 7,2 15,1 10,4 10,0 8 4 23 13 W 1016,0 16 0 0,0
16.04.2019 14:00:00 12,9 7,3 14,5 10,3 10,0 6 3 19 10 W 1015,5 16 0 0,0
16.04.2019 13:00:00 12,2 6,7 12,8 10,3 10,0 8 5 19 10 W 1015,4 14 0 0,0
16.04.2019 12:00:00 11,9 6,4 12,0 10,2 10,0 9 5 24 13 W 1015,3 14 0 0,0
16.04.2019 11:00:00 11,4 6,7 11,7 10,1 10,0 11 6 22 12 W 1015,1 14 0 0,0
16.04.2019 10:00:00 11,0 6,5 11,5 10,1 10,0 12 6 23 12 SW 1014,6 14 0 0,0
16.04.2019 09:00:00 10,5 6,1 9,4 10,2 10,0 10 6 23 12 SW 1013,9 15 0 0,0
16.04.2019 08:00:00 10,7 4,6 9,5 10,2 10,0 10 5 22 12 WSW 1013,1 19 0 0,0
16.04.2019 07:00:00 11,3 2,6 8,5 10,3 10,0 11 6 22 12 WSW 1012,5 20 0 0,0
16.04.2019 06:00:00 10,1 2,7 7,3 10,4 10,0 8 5 16 9 SSW 1012,4 20 0 0,0
16.04.2019 05:00:00 10,4 2,2 7,2 10,5 10,1 4 2 11 6 SE 1012,4 20 0 0,0
16.04.2019 04:00:00 11,3 2,3 8,2 10,5 10,0 5 3 11 6 SSE 1012,5 20 0 0,0
16.04.2019 03:00:00 11,3 2,3 6,7 10,6 10,0 6 3 13 7 SE 1012,4 20 0 0,0
16.04.2019 02:00:00 11,1 2,1 7,1 10,7 10,1 5 3 18 10 SE 1012,6 20 0 0,0
16.04.2019 01:00:00 12,3 2,2 9,0 10,8 10,0 9 5 26 14 SE 1013,1 20 0 0,0
16.04.2019 00:00:00 12,9 2,4 9,9 10,9 10,1 13 7 26 14 SE 1013,1 20 0 0,0
15.04.2019 23:00:00 13,1 2,9 8,6 11,0 10,0 11 6 23 13 ESE 1012,9 20 0 0,0
15.04.2019 22:00:00 13,3 2,5 8,0 11,1 10,1 9 5 21 12 E 1013,1 19 0 0,0
15.04.2019 21:00:00 14,0 2,2 8,8 11,1 10,1 8 4 30 16 E 1013,2 20 0 0,0
15.04.2019 20:00:00 15,3 2,1 13,6 11,1 10,1 16 9 39 21 ESE 1013,2 20 43 0,0
15.04.2019 19:00:00 16,2 2,2 17,2 10,9 10,1 18 10 40 22 SE 1013,6 19 56 0,0
15.04.2019 18:00:00 16,5 3,2 20,1 10,7 10,1 16 9 36 20 SE 1014,3 20 60 0,0
15.04.2019 17:00:00 16,0 1,7 19,6 10,4 10,0 18 10 39 21 ESE 1015,1 19 60 0,0
15.04.2019 16:00:00 15,8 1,5 19,8 10,1 10,0 17 9 45 24 ESE 1015,9 19 58 0,0
15.04.2019 15:00:00 15,1 -0,3 19,4 9,8 10,1 18 10 43 23 SE 1016,8 20 60 0,0
15.04.2019 14:00:00 14,9 -0,4 19,5 9,4 10,0 16 9 36 20 ESE 1017,9 20 60 0,0
15.04.2019 13:00:00 14,2 0,4 17,8 9,1 10,0 12 6 41 22 ESE 1019,1 20 60 0,0
15.04.2019 12:00:00 13,2 0,2 17,0 9,0 10,1 16 9 45 24 ESE 1020,3 19 60 0,0
15.04.2019 11:00:00 11,4 -0,1 12,4 8,9 10,1 18 10 37 20 ESE 1021,1 20 60 0,0
15.04.2019 10:00:00 9,1 0,3 6,0 9,0 10,1 10 5 20 11 SE 1022,2 16 60 0,0
15.04.2019 09:00:00 5,6 -0,3 1,8 9,1 10,1 9 5 29 15 ESE 1022,9 12 46 0,0
15.04.2019 08:00:00 4,0 -0,4 -0,2 9,2 10,1 8 4 16 9 E 1022,9 10 12 0,0
15.04.2019 07:00:00 4,1 -0,9 0,1 9,4 10,1 7 4 25 13 ESE 1022,7 11 0 0,0
15.04.2019 06:00:00 4,0 -1,2 -0,5 9,5 10,1 7 4 21 11 SE 1023,0 13 0 0,0
15.04.2019 05:00:00 4,2 -1,4 0,4 9,6 10,1 8 5 19 10 ESE 1023,1 14 0 0,0
15.04.2019 04:00:00 5,1 -1,6 0,4 9,8 10,1 11 6 24 13 E 1023,5 17 0 0,0
15.04.2019 03:00:00 4,7 -1,8 0,4 10,0 10,1 6 4 18 10 ESE 1023,7 16 0 0,0
15.04.2019 02:00:00 5,6 -2,0 0,5 10,1 10,0 11 6 25 13 E 1024,3 19 0 0,0
15.04.2019 01:00:00 5,4 -2,0 0,8 10,3 10,1 8 4 23 12 E 1024,5 19 0 0,0
15.04.2019 00:00:00 6,2 -2,2 1,7 10,5 10,1 9 5 24 13 E 1024,5 19 0 0,0
14.04.2019 23:00:00 6,7 -2,2 2,2 10,6 10,1 11 6 24 13 E 1024,5 20 0 0,0
14.04.2019 22:00:00 7,0 -2,5 3,3 10,7 10,1 10 5 32 17 E 1024,3 20 0 0,0
14.04.2019 21:00:00 7,7 -2,6 4,9 10,7 10,1 19 10 37 20 E 1023,4 20 16 0,0
14.04.2019 20:00:00 8,9 -3,3 8,1 10,7 10,1 15 8 34 18 E 1022,9 20 54 0,0
14.04.2019 19:00:00 10,0 -4,4 9,8 10,6 10,1 14 7 32 18 ENE 1022,9 20 31 0,0
14.04.2019 18:00:00 10,6 -3,5 12,6 10,4 10,1 10 5 34 18 E 1022,6 19 45 0,0
14.04.2019 17:00:00 10,0 -4,4 10,5 10,2 10,1 11 6 31 17 E 1023,0 19 38 0,0
14.04.2019 16:00:00 10,0 -3,0 9,7 10,0 10,1 11 6 34 19 ENE 1022,4 19 40 0,0
14.04.2019 15:00:00 8,6 -2,4 10,3 9,7 10,1 18 10 32 18 NE 1022,7 19 19 0,0
14.04.2019 14:00:00 8,6 -2,4 9,6 9,4 10,1 14 8 30 16 NE 1022,8 19 35 0,0

tt = Température de l'air
td = dewpoint
tt 5cm = Température de l'air 5cm
tt -20cm = Température de l'air -20cm
tt -100cm = Température de l'air -100cm
ff = Vitesse du vent
fx = gusts
dd = Direction du vent
ppp = reduced air pressure
vv = visibility
sd = Ensoleillement
rr = Quantités de précipitations

stations d'obs. à proximité